Regional Weather Roundup
Issued by NWS Green Bay, WI

Home | Current Version | Previous Version | Text Only | Print | Product List | Glossary On
Versions: 1 2 3 4 5 6 7 8 9 10 11 12 13 14 15 16 17 18 19 20 21 22 23 24 25 26 27 28 29 30 31 32 33 34 35 36 37 38 39 40 41 42 43 44 45 46 47 48 49 50
776
ASUS43 KGRB 181711
RWRGRB

NORTH-CENTRAL AND NORTHEAST WISCONSIN REGIONAL WEATHER ROUNDUP
NATIONAL WEATHER SERVICE GREEN BAY WI
1100 AM CST SAT NOV 18 2017

WIZ005-009-010>012-018-019-181800-
NORTH CENTRAL WISCONSIN

CITY           SKY/WX    TMP DP  RH WIND       PRES   REMARKS
IRONWOOD       CLOUDY   N/A N/A N/A NW12      29.70S
MANITOWISH WTR CLOUDY    32  32 100 NW7       29.66F
ARBOR VITAE    MOSUNNY   34  32  93 N8        29.64F
EAGLE RIVER    CLOUDY    32  29  90 N10G18    29.64S
LAND O LAKES   CLOUDY    32  30  92 NW8       29.66S
RHINELANDER    CLOUDY    33  30  88 N7        29.65S
PHILLIPS       CLOUDY    32  30  92 NW8       29.67F
ANTIGO         CLOUDY    33  30  91 N16G25    29.62R
TOMAHAWK       CLOUDY    33  30  89 NW7       29.66S
MERRILL        CLOUDY    34  32  90 N7        29.66R
$$

WIZ013-073-181800-
NORTHEAST WISCONSIN

CITY           SKY/WX    TMP DP  RH WIND       PRES   REMARKS
IRON MOUNTAIN  CLOUDY    35  30  82 NW14      29.60F
MARINETTE      CLOUDY    38  35  89 N12G17    29.61S
OCONTO         CLOUDY    38  33  82 N12       29.60R
$$

WIZ017-030-035>037-045-181800-
CENTRAL WISCONSIN

CITY           SKY/WX    TMP DP  RH WIND       PRES   REMARKS
MEDFORD        CLOUDY    33  31  90 N13       29.65S
WAUSAU         CLOUDY    35  31  85 N12       29.63R
MOSINEE        CLOUDY    36  32  87 N13G18    29.65R
MARSHFIELD     CLOUDY    35  31  85 N14G21    29.65R
WISC RAPIDS    CLOUDY    37  32  82 N13G23    29.66R
STEVENS POINT  CLOUDY    35  32  89 N12G17    29.64R
WAUPACA        CLOUDY    40  34  79 N10       29.63R
SHAWANO        CLOUDY    39  34  80 N9        29.62R
CLINTONVILLE   CLOUDY    37  34  87 N8        29.62R
WAUTOMA        CLOUDY    37  34  89 N8        29.64R
$$

WIZ038-039-048-051-181800-
FOX VALLEY

CITY           SKY/WX    TMP DP  RH WIND       PRES   REMARKS
NWS GREEN BAY  CLOUDY    39  36  89 N12       29.60R
APPLETON       CLOUDY    37  36  93 N12       29.59R
OSHKOSH        CLOUDY    38  34  85 N14       29.59F
FOND DU LAC    CLOUDY    38  33  82 N12       29.60S
$$

WIZ022-050-052-181800-
EAST CENTRAL WISCONSIN

CITY           SKY/WX    TMP DP  RH WIND       PRES   REMARKS
EPHRAIM        CLOUDY    39  35  85 N13G18    29.56S
WASHINGTON ISL CLOUDY    39  35  85 N14G20    29.57S
STURGEON BAY   CLOUDY    39  36  89 N16G25    29.57F
MANITOWOC      CLOUDY    39  36  89 N13       29.57F
SHEBOYGAN      CLOUDY    38  37  97 N15       29.56F
$$

LMZ563-521-522-541>543-181800-
LAKESHORE

STATION/POSITION TIME  TEMP    WIND        PRES    VSBY  WAVE
                       AIR SEA DIR/SP/G                  HT/PER
                 (UTC) (F)     (DEG/KT/KT) (MB)    (MI)  (FT/S)
SHEBOYGAN LKSHOR 1700   38     340/ 19/ 22 1001.1F
NORTHPORT PIER   1700   41     360/ 20/ 24 1001.4
N MID LAKE BUOY  1650   41 48   10/ 17/ 21 1001.5F         4/ 5
SISTER BAY LKSHO 1619   41     350/ 19/ 23   N/A
$$




USA.gov is the U.S. government's official web portal to all federal, state and local government web resources and services.